[[{"header":{"parameterUnit":"m.s-1","parameterCategory":1,"la1":30.2991,"la2":30.254,"lo1":-89.0895,"lo2":-89.0444,"dy":0.0017,"dx":0.0017,"nx":28,"ny":28,"refTime":"2023-09-08T09:00:00:Z","depth":0,"parameterNumber":2,"parameterNumberName":"U-component_of_WINDS"},"data":[0,0,0,0,0,0,0,0,0,0,0,0,0,0,0,0,0,0,0,0,0,0,0,0,0,0,0,0,0,0,0,0,0,0,0,0,0,0,0,0,0,0,0,0,0,0,0,0,0,0,0,0,0,0,0,0,0,0,0.4874,0.4874,0,0.4883,0.4883,0.4883,0.4856,0.4855,0.4855,0.4854,0.4863,0.4864,0.4865,0,0,0,0,0,0,0,0,0,0,0,0,0,0.4835,0.4836,0.4874,0.4874,0.4874,0.4883,0.4883,0.4883,0.4856,0.4855,0.4854,0.4853,0.4863,0.4864,0.4866,0,0,0,0,0,0,0,0,0,0,0,0,0,0.4849,0.4836,0.4874,0.4862,0.4861,0.4883,0.4883,0.4883,0.4857,0.4855,0.4854,0.4853,0.4863,0.4864,0.4866,0.49,0,0,0.487,0.4871,0,0,0,0,0,0,0,0,0.4848,0.485,0.4863,0.4863,0.4861,0.4867,0.4873,0.4889,0.4857,0.4858,0.4854,0.4852,0.4866,0.4867,0.4871,0.49,0.4901,0.4871,0.4872,0.4872,0.4873,0,0,0,0,0,0,0,0.4847,0.485,0.4877,0.4864,0.4862,0.4856,0.4857,0.4876,0.4869,0.4858,0.4856,0.4857,0.4865,0.487,0.4871,0.4901,0.4871,0.4872,0.4873,0.4873,0.4961,0.4963,0,0,0,0,0,0,0.4848,0.4849,0.4877,0.4877,0.4852,0.4858,0.4859,0.4866,0.4868,0.4868,0.4858,0.4856,0.4868,0.487,0.4872,0.4914,0.4872,0.4874,0.4874,0.496,0.4962,0.4963,0,0,0,0,0,0,0.4847,0.485,0.4877,0.4863,0.4866,0.486,0.4869,0.4867,0.4872,0.4869,0.4868,0.4865,0.4867,0.4869,0.4894,0.4914,0.4874,0.4876,0.4958,0.496,0.4962,0.4997,0,0,0,0,0,0,0.4846,0.485,0.4863,0.4863,0.4866,0.4898,0.487,0.4868,0.4875,0.4872,0.4874,0.4874,0.4866,0.4892,0.4895,0.4915,0.4877,0.4956,0.4959,0.4962,0.4994,0.5,0.5006,0,0,0,0,0,0.4845,0.4871,0.4863,0.4867,0.4882,0.4899,0.4901,0.4892,0.4877,0.489,0.4888,0.4874,0.4911,0.4894,0.4898,0.4919,0.4955,0.4958,0.4961,0.4992,0.4999,0.5005,0,0,0,0,0,0,0.4873,0.4871,0.4862,0.489,0.4895,0.4895,0.4911,0.49,0.4909,0.4906,0.4894,0.4895,0.4922,0.4922,0.4904,0.4953,0.493,0.4935,0.4952,0.4959,0.4965,0.4965,0.4878,0,0,0,0,0,0.4882,0.4896,0.4894,0.4919,0.4922,0.4916,0.4923,0.4916,0.4921,0.4923,0.4922,0.4928,0.4941,0.495,0.4961,0.4994,0.4996,0.501,0.5016,0.5021,0.5025,0.5045,0.5052,0.4974,0.4974,0.4973,0,0,0.4902,0.4903,0.4912,0.4925,0.4928,0.4944,0.4918,0.4935,0.4947,0.4925,0.4949,0.4949,0.4954,0.4984,0.4996,0.4985,0.5047,0.5025,0.5028,0.503,0.5049,0.5056,0.5063,0.4976,0.4975,0.4975,0,0,0.4947,0.4948,0.497,0.4974,0.4979,0.4975,0.498,0.4982,0.4982,0.5005,0.499,0.5004,0.5026,0.5032,0.5037,0.5086,0.5074,0.509,0.512,0.5139,0.5146,0.5151,0.5171,0.5178,0.5094,0.5094,0.5094,0,0.4971,0.4993,0.4983,0.5002,0.5009,0.499,0.5013,0.5017,0.5026,0.5032,0.5018,0.5048,0.505,0.5082,0.5094,0.5098,0.5105,0.509,0.5146,0.5151,0.5156,0.5175,0.5182,0.5096,0.5096,0.5096,0.5095,0,0.5024,0.504,0.5057,0.5067,0.5076,0.5097,0.509,0.51,0.5093,0.5091,0.5116,0.5118,0.5131,0.5138,0.513,0.5169,0.5162,0.5147,0.5124,0.5166,0.5184,0.519,0.5099,0.5098,0.5098,0.5097,0,0,0.5086,0.5091,0.5098,0.5104,0.5109,0.5121,0.5142,0.5155,0.5165,0.5172,0.5191,0.5211,0.5198,0.5204,0.5197,0.5214,0.5256,0.5197,0.5197,0.521,0.5303,0.5315,0.5324,0.5248,0.5249,0.525,0.5303,0,0.5132,0.5168,0.516,0.5196,0.5212,0.5196,0.5214,0.522,0.5219,0.5233,0.5231,0.5247,0.5227,0.5232,0.5248,0.5247,0.5275,0.5243,0.5267,0.5268,0.5268,0.5333,0.5346,0.5396,0.531,0.5311,0.5311,0,0.519,0.5201,0.5239,0.5244,0.525,0.5267,0.528,0.5292,0.5299,0.5298,0.5306,0.5296,0.5318,0.5294,0.5325,0.5304,0.5313,0.5315,0.5317,0.532,0.5293,0.534,0.5411,0.542,0.5322,0.5321,0.532,0,0.5236,0.5259,0.5285,0.529,0.5295,0.5308,0.5311,0.5317,0.5326,0.5337,0.5343,0.5356,0.5364,0.5375,0.537,0.5352,0.5404,0.5378,0.5404,0.5405,0.5417,0.5417,0.5493,0.5419,0.5419,0.5419,0.5419,0,0.5289,0.5313,0.5306,0.5322,0.535,0.534,0.5368,0.5369,0.5375,0.5392,0.5378,0.5394,0.5385,0.5401,0.5397,0.5426,0.5428,0.5429,0.5428,0.5432,0.5432,0.5439,0.5436,0.5421,0.5421,0.542,0.542,0,0.5344,0.534,0.5368,0.5372,0.5373,0.5394,0.5397,0.5413,0.5411,0.5434,0.5438,0.5436,0.5454,0.545,0.5469,0.5467,0.5504,0.5497,0.5502,0.5501,0.5529,0.5527,0.5614,0.5626,0.5542,0.5543,0.5543,0,0.538,0.5398,0.5404,0.5415,0.542,0.5437,0.5446,0.5438,0.5449,0.546,0.5475,0.5493,0.5506,0.5537,0.5538,0.5554,0.5549,0.5578,0.5551,0.5556,0.5553,0.5553,0.5556,0.5584,0.5585,0.5586,0.5587,0,0.5444,0.5441,0.5456,0.5471,0.5483,0.5494,0.5504,0.5513,0.5506,0.5519,0.5539,0.5549,0.5571,0.5589,0.5605,0.5608,0.5598,0.5595,0.5602,0.5608,0.5611,0.5612,0.5519,0.5593,0.5593,0.5592,0.5592,0.5592,0.5492,0.5509,0.5517,0.5534,0.5541,0.5551,0.5567,0.5568,0.5584,0.5601,0.5595,0.5618,0.5626,0.5645,0.5651,0.567,0.5659,0.5669,0.5672,0.5675,0.568,0.5606,0.5672,0.5672,0.5672,0.5672,0.5671,0,0.5558,0.5563,0.5579,0.5593,0.5608,0.5595,0.5606,0.5619,0.564,0.5648,0.5663,0.5686,0.5704,0.5707,0.5725,0.5739,0.5735,0.5744,0.5745,0.5746,0.5687,0.5681,0.5748,0.5748,0.5748,0.5748,0.5748,0.5748,0.5594,0.5623,0.5622,0.5655,0.5659,0.5681,0.5689,0.5699,0.5706,0.5733,0.5749,0.575,0.5757,0.5775,0.5792,0.5793,0.5801,0.5813,0.5812,0.5757,0.575,0.5743,0.5736,0.5814,0.5814,0.587,0.587,0.587]},{"header":{"parameterUnit":"m.s-1","parameterCategory":1,"la1":30.2991,"la2":30.254,"lo1":-89.0895,"lo2":-89.0444,"dy":0.0017,"dx":0.0017,"nx":28,"ny":28,"refTime":"2023-09-08T09:00:00:Z","depth":0,"parameterNumber":3,"parameterNumberName":"V-component_of_WINDS"},"data":[0,0,0,0,0,0,0,0,0,0,0,0,0,0,0,0,0,0,0,0,0,0,0,0,0,0,0,0,0,0,0,0,0,0,0,0,0,0,0,0,0,0,0,0,0,0,0,0,0,0,0,0,0,0,0,0,0,0,-2.4999,-2.4999,0,-2.4952,-2.4951,-2.4951,-2.4921,-2.4921,-2.4921,-2.492,-2.487,-2.4869,-2.4868,0,0,0,0,0,0,0,0,0,0,0,0,0,-2.5062,-2.5061,-2.4999,-2.4999,-2.4998,-2.4952,-2.4951,-2.4951,-2.4921,-2.4921,-2.492,-2.492,-2.487,-2.4869,-2.4868,0,0,0,0,0,0,0,0,0,0,0,0,0,-2.5026,-2.506,-2.5,-2.4978,-2.4975,-2.4952,-2.4951,-2.495,-2.4921,-2.4921,-2.492,-2.492,-2.4871,-2.4869,-2.4867,-2.4861,0,0,-2.4862,-2.4861,0,0,0,0,0,0,0,0,-2.5029,-2.5024,-2.4982,-2.4979,-2.4977,-2.4942,-2.4955,-2.4921,-2.4921,-2.4942,-2.492,-2.492,-2.4894,-2.489,-2.4882,-2.4859,-2.4857,-2.4862,-2.4861,-2.486,-2.4859,0,0,0,0,0,0,0,-2.5031,-2.5026,-2.4981,-2.4981,-2.4978,-2.497,-2.4964,-2.4948,-2.492,-2.494,-2.4937,-2.4932,-2.4893,-2.4884,-2.4881,-2.4856,-2.4862,-2.486,-2.4859,-2.4859,-2.4823,-2.4824,0,0,0,0,0,0,-2.5037,-2.5028,-2.4982,-2.4979,-2.5003,-2.4969,-2.4963,-2.4953,-2.492,-2.4915,-2.4933,-2.4931,-2.4887,-2.4883,-2.4879,-2.4868,-2.486,-2.4858,-2.4857,-2.4823,-2.4824,-2.4824,0,0,0,0,0,0,-2.5039,-2.5033,-2.4984,-2.5003,-2.4996,-2.4968,-2.4958,-2.4953,-2.4944,-2.4914,-2.4909,-2.4929,-2.4887,-2.4881,-2.4866,-2.4866,-2.4858,-2.4856,-2.4823,-2.4823,-2.4824,-2.4848,0,0,0,0,0,0,-2.5041,-2.5034,-2.5032,-2.5003,-2.4995,-2.4973,-2.4958,-2.4952,-2.4941,-2.4938,-2.491,-2.4905,-2.4886,-2.4868,-2.4864,-2.4863,-2.4855,-2.4823,-2.4823,-2.4824,-2.4847,-2.4849,-2.485,0,0,0,0,0,-2.5043,-2.5041,-2.5032,-2.5027,-2.4993,-2.4973,-2.4968,-2.4947,-2.4941,-2.4938,-2.4919,-2.4905,-2.4867,-2.4867,-2.4862,-2.4861,-2.4823,-2.4823,-2.4823,-2.4846,-2.4848,-2.485,0,0,0,0,0,0,-2.5071,-2.5037,-2.5027,-2.5016,-2.4997,-2.4968,-2.4964,-2.4951,-2.4933,-2.4932,-2.4906,-2.49,-2.4886,-2.4872,-2.4873,-2.4852,-2.4843,-2.4842,-2.4862,-2.4864,-2.4866,-2.4869,-2.4853,0,0,0,0,0,-2.5075,-2.5063,-2.5034,-2.5027,-2.5018,-2.4993,-2.4983,-2.4969,-2.4948,-2.494,-2.492,-2.49,-2.4883,-2.4873,-2.4856,-2.4844,-2.4837,-2.4841,-2.4843,-2.4844,-2.4844,-2.4835,-2.4836,-2.4825,-2.4825,-2.4825,0,0,-2.5085,-2.5065,-2.5059,-2.5032,-2.5016,-2.5002,-2.4986,-2.4973,-2.4962,-2.4938,-2.4922,-2.4906,-2.4882,-2.4868,-2.4861,-2.4856,-2.4845,-2.4845,-2.4846,-2.4845,-2.4835,-2.4836,-2.4837,-2.4825,-2.4825,-2.4825,0,0,-2.5096,-2.508,-2.5072,-2.5056,-2.5032,-2.5015,-2.5013,-2.4985,-2.4974,-2.4957,-2.4938,-2.4924,-2.4896,-2.488,-2.4867,-2.487,-2.4856,-2.4865,-2.4875,-2.4866,-2.4867,-2.4868,-2.4867,-2.4868,-2.4865,-2.4865,-2.4865,0,-2.5111,-2.5091,-2.5069,-2.5056,-2.5044,-2.5022,-2.5012,-2.4998,-2.4969,-2.4961,-2.4956,-2.4919,-2.4901,-2.4882,-2.4882,-2.4874,-2.487,-2.4868,-2.4869,-2.4869,-2.4869,-2.4869,-2.4869,-2.4866,-2.4866,-2.4866,-2.4866,0,-2.5109,-2.5096,-2.5091,-2.5065,-2.5052,-2.5041,-2.5017,-2.5006,-2.4993,-2.4976,-2.4958,-2.4936,-2.4913,-2.4908,-2.4894,-2.4886,-2.4883,-2.4874,-2.4864,-2.4872,-2.4871,-2.4871,-2.4868,-2.4867,-2.4867,-2.4867,0,0,-2.5136,-2.5097,-2.5096,-2.5083,-2.5054,-2.5042,-2.503,-2.5008,-2.4999,-2.498,-2.4967,-2.4943,-2.4934,-2.492,-2.4904,-2.4897,-2.4899,-2.4888,-2.4887,-2.489,-2.4887,-2.4894,-2.4894,-2.4889,-2.4889,-2.4889,-2.4888,0,-2.5142,-2.5119,-2.5098,-2.5082,-2.5068,-2.5046,-2.5035,-2.5015,-2.4999,-2.4984,-2.4965,-2.4948,-2.4938,-2.4929,-2.4921,-2.49,-2.4898,-2.49,-2.4876,-2.4876,-2.4883,-2.4893,-2.4901,-2.4901,-2.4888,-2.4888,-2.4888,0,-2.5146,-2.5127,-2.511,-2.5081,-2.5075,-2.5065,-2.5043,-2.5029,-2.5006,-2.4994,-2.4978,-2.4961,-2.4945,-2.4938,-2.4914,-2.4917,-2.4906,-2.4894,-2.4893,-2.489,-2.4882,-2.4889,-2.4901,-2.4901,-2.4887,-2.4887,-2.4887,0,-2.5165,-2.5137,-2.5122,-2.5112,-2.5078,-2.5072,-2.5057,-2.5034,-2.5022,-2.5002,-2.4993,-2.4972,-2.496,-2.4943,-2.492,-2.4916,-2.4898,-2.4889,-2.4887,-2.4888,-2.4884,-2.4885,-2.4894,-2.4878,-2.4878,-2.4878,-2.4878,0,-2.5173,-2.5163,-2.513,-2.5122,-2.5109,-2.5085,-2.5073,-2.5057,-2.5036,-2.5022,-2.5001,-2.4989,-2.496,-2.4944,-2.4926,-2.4908,-2.4903,-2.4892,-2.4888,-2.4894,-2.4895,-2.4886,-2.4885,-2.4878,-2.4878,-2.4878,-2.4878,0,-2.5193,-2.5171,-2.5154,-2.5123,-2.5115,-2.5108,-2.5081,-2.5071,-2.5053,-2.5036,-2.503,-2.5002,-2.4981,-2.4957,-2.4929,-2.4916,-2.49,-2.4894,-2.4908,-2.4905,-2.4905,-2.4905,-2.4907,-2.4906,-2.4893,-2.4893,-2.4893,0,-2.5199,-2.5191,-2.516,-2.515,-2.5136,-2.512,-2.5107,-2.5083,-2.507,-2.5042,-2.5035,-2.5013,-2.4994,-2.4962,-2.4938,-2.4916,-2.4908,-2.491,-2.4904,-2.491,-2.4907,-2.4907,-2.4906,-2.4912,-2.4912,-2.4912,-2.4912,0,-2.5212,-2.5201,-2.5184,-2.5163,-2.5148,-2.513,-2.5111,-2.5104,-2.5075,-2.5062,-2.5041,-2.5026,-2.4997,-2.4975,-2.4949,-2.4933,-2.4917,-2.4915,-2.4913,-2.4919,-2.4927,-2.4922,-2.4912,-2.4915,-2.4914,-2.4914,-2.4914,-2.4914,-2.5224,-2.5216,-2.5192,-2.5173,-2.5156,-2.5139,-2.5127,-2.5108,-2.509,-2.5065,-2.5051,-2.503,-2.5006,-2.497,-2.4954,-2.4936,-2.4931,-2.4929,-2.4928,-2.4928,-2.4929,-2.4931,-2.4932,-2.4932,-2.4931,-2.4931,-2.4931,0,-2.5235,-2.5219,-2.5202,-2.5176,-2.5161,-2.5148,-2.5126,-2.5114,-2.5096,-2.5075,-2.5057,-2.5032,-2.501,-2.4984,-2.496,-2.4951,-2.4943,-2.4945,-2.4945,-2.4941,-2.4936,-2.4939,-2.4952,-2.4952,-2.4952,-2.4952,-2.4952,-2.4952,-2.5239,-2.5223,-2.5209,-2.5184,-2.5167,-2.5147,-2.5135,-2.5118,-2.5101,-2.5075,-2.5057,-2.504,-2.5017,-2.4991,-2.4969,-2.4962,-2.4954,-2.4958,-2.4949,-2.4944,-2.4942,-2.494,-2.4944,-2.4957,-2.4957,-2.4956,-2.4956,-2.4956]}]]